| time (UTC) | temp C | wind direction | speed KPH | gust KPH | rain 1hr cm | rain 24hr cm | rain mn cm | humidity % | barometer mb |
| 20260831104213 | 16 | 19 | 16.1 | 25.7 | 0.00 | 0.00 | 0.00 | 53 | 1031.2 |
| 20260831103929 | 16 | 9 | 14.5 | 27.4 | 0.00 | 0.00 | 0.00 | 53 | 1031.3 |
| 20260831103202 | 16 | 14 | 16.1 | 27.4 | 0.00 | 0.00 | 0.00 | 54 | 1031.2 |
| 20260831102655 | 16 | 9 | 14.5 | 24.1 | 0.00 | 0.00 | 0.00 | 54 | 1031.2 |
| 20260831102151 | 16 | 12 | 11.3 | 24.1 | 0.00 | 0.00 | 0.00 | 54 | 1031.3 |
| 20260831101644 | 16 | 24 | 14.5 | 24.1 | 0.00 | 0.00 | 0.00 | 54 | 1031.3 |
| 20260831101137 | 16 | 19 | 12.9 | 20.9 | 0.00 | 0.00 | 0.00 | 54 | 1031.2 |
| 20260831100632 | 16 | 24 | 9.7 | 19.3 | 0.00 | 0.00 | 0.00 | 54 | 1031.2 |
| 20260831100125 | 16 | 61 | 11.3 | 24.1 | 0.00 | 0.00 | 0.00 | 54 | 1031.1 |
| 20260831095619 | 16 | 30 | 12.9 | 24.1 | 0.00 | 0.00 | 0.00 | 53 | 1031.1 |
| 20260831095113 | 16 | 14 | 11.3 | 17.7 | 0.00 | 0.00 | 0.00 | 53 | 1030.9 |
| 20260831094608 | 16 | 25 | 9.7 | 19.3 | 0.00 | 0.00 | 0.00 | 53 | 1030.8 |
| 20260831094319 | 16 | 23 | 11.3 | 20.9 | 0.00 | 0.00 | 0.00 | 53 | 1030.8 |
| 20260831093555 | 16 | 46 | 11.3 | 20.9 | 0.00 | 0.00 | 0.00 | 53 | 1030.8 |
| 20260831093050 | 16 | 45 | 11.3 | 19.3 | 0.00 | 0.00 | 0.00 | 53 | 1030.7 |
| 20260831092544 | 16 | 50 | 11.3 | 19.3 | 0.00 | 0.00 | 0.00 | 53 | 1030.8 |
| 20260831092038 | 16 | 5 | 12.9 | 20.9 | 0.00 | 0.00 | 0.00 | 53 | 1030.8 |
| 20260831091752 | 16 | 33 | 9.7 | 20.9 | 0.00 | 0.00 | 0.00 | 53 | 1030.7 |
| 20260831091026 | 17 | 19 | 11.3 | 20.9 | 0.00 | 0.00 | 0.00 | 53 | 1030.7 |
| 20260831090519 | 17 | 25 | 11.3 | 20.9 | 0.00 | 0.00 | 0.00 | 53 | 1030.8 |
| 20260831090014 | 17 | 22 | 9.7 | 19.3 | 0.00 | 0.00 | 0.00 | 53 | 1030.8 |
| 20260831085507 | 17 | 46 | 12.9 | 20.9 | 0.00 | 0.00 | 0.00 | 53 | 1030.9 |
| 20260831085002 | 17 | 5 | 16.1 | 25.7 | 0.00 | 0.00 | 0.00 | 52 | 1030.8 |
| 20260831084456 | 17 | 24 | 16.1 | 25.7 | 0.00 | 0.00 | 0.00 | 52 | 1030.9 |
| 20260831083950 | 17 | 14 | 16.1 | 27.4 | 0.00 | 0.00 | 0.00 | 52 | 1030.9 |
| 20260831083443 | 17 | 13 | 17.7 | 27.4 | 0.00 | 0.00 | 0.00 | 52 | 1030.9 |
| 20260831082938 | 17 | 39 | 17.7 | 25.7 | 0.00 | 0.00 | 0.00 | 53 | 1030.9 |
| 20260831082431 | 17 | 23 | 19.3 | 29.0 | 0.00 | 0.00 | 0.00 | 53 | 1031.1 |
| 20260831081925 | 17 | 19 | 19.3 | 30.6 | 0.00 | 0.00 | 0.00 | 52 | 1030.9 |
| 20260831081420 | 18 | 12 | 20.9 | 30.6 | 0.00 | 0.00 | 0.00 | 52 | 1030.9 |
| 20260831081135 | 18 | 17 | 20.9 | 29.0 | 0.00 | 0.00 | 0.00 | 51 | 1030.9 |
| 20260831080408 | 18 | 36 | 19.3 | 27.4 | 0.00 | 0.00 | 0.00 | 51 | 1031.1 |
| 20260831075901 | 18 | 19 | 17.7 | 25.7 | 0.00 | 0.00 | 0.00 | 50 | 1031.1 |
| 20260831075355 | 18 | 26 | 17.7 | 24.1 | 0.00 | 0.00 | 0.00 | 50 | 1031.1 |
| 20260831074850 | 18 | 13 | 17.7 | 24.1 | 0.00 | 0.00 | 0.00 | 49 | 1031.1 |
| 20260831074343 | 18 | 20 | 16.1 | 22.5 | 0.00 | 0.00 | 0.00 | 48 | 1031.1 |
| 20260831074103 | 18 | 13 | 16.1 | 22.5 | 0.00 | 0.00 | 0.00 | 47 | 1031.1 |
| 20260831073331 | 18 | 355 | 14.5 | 22.5 | 0.00 | 0.00 | 0.00 | 46 | 1030.9 |
| 20260831072825 | 19 | 5 | 16.1 | 22.5 | 0.00 | 0.00 | 0.00 | 46 | 1031.1 |
| 20260831072809 | 19 | 15 | 16.1 | 22.5 | 0.00 | 0.00 | 0.00 | 45 | 1030.9 |
| 20260831071813 | 19 | 30 | 17.7 | 24.1 | 0.00 | 0.00 | 0.00 | 45 | 1031.1 |
| 20260831071307 | 19 | 0 | 16.1 | 29.0 | 0.00 | 0.00 | 0.00 | 45 | 1031.1 |
| 20260831070801 | 19 | 19 | 16.1 | 29.0 | 0.00 | 0.00 | 0.00 | 45 | 1031.1 |
| 20260831070520 | 19 | 5 | 19.3 | 32.2 | 0.00 | 0.00 | 0.00 | 45 | 1031.1 |
| 20260831065749 | 19 | 25 | 19.3 | 32.2 | 0.00 | 0.00 | 0.00 | 45 | 1030.9 |
| 20260831065244 | 19 | 11 | 20.9 | 32.2 | 0.00 | 0.00 | 0.00 | 45 | 1031.1 |
| 20260831064737 | 20 | 40 | 24.1 | 37.0 | 0.00 | 0.00 | 0.00 | 44 | 1031.1 |
| 20260831064231 | 20 | 17 | 24.1 | 37.0 | 0.00 | 0.00 | 0.00 | 44 | 1030.9 |
| 20260831063725 | 20 | 19 | 22.5 | 37.0 | 0.00 | 0.00 | 0.00 | 44 | 1031.1 |
| 20260831063220 | 20 | 348 | 17.7 | 46.7 | 0.00 | 0.00 | 0.00 | 43 | 1031.1 |
| 20260831062714 | 20 | 341 | 11.3 | 46.7 | 0.00 | 0.00 | 0.00 | 42 | 1031.1 |
| 20260831062208 | 20 | 32 | 8.0 | 14.5 | 0.00 | 0.00 | 0.00 | 41 | 1030.8 |
| 20260831061701 | 19 | 80 | 8.0 | 16.1 | 0.00 | 0.00 | 0.00 | 42 | 1030.7 |
| 20260831061155 | 19 | 52 | 8.0 | 16.1 | 0.00 | 0.00 | 0.00 | 42 | 1030.7 |
| 20260831060914 | 19 | 44 | 6.4 | 12.9 | 0.00 | 0.00 | 0.00 | 42 | 1030.7 |
| 20260831060142 | 19 | 55 | 6.4 | 11.3 | 0.00 | 0.00 | 0.00 | 42 | 1030.7 |
| 20260831055636 | 19 | 62 | 6.4 | 12.9 | 0.00 | 0.00 | 0.00 | 42 | 1030.7 |
| 20260831055131 | 19 | 35 | 6.4 | 12.9 | 0.00 | 0.00 | 0.00 | 43 | 1030.8 |
| 20260831054624 | 19 | 57 | 4.8 | 9.7 | 0.00 | 0.00 | 0.00 | 43 | 1030.8 |
| 20260831054119 | 19 | 57 | 3.2 | 9.7 | 0.00 | 0.00 | 0.00 | 43 | 1030.9 |
| 20260831053612 | 19 | 31 | 1.6 | 9.7 | 0.00 | 0.00 | 0.00 | 43 | 1030.9 |
| 20260831053108 | 19 | 63 | 4.8 | 11.3 | 0.00 | 0.00 | 0.00 | 44 | 1030.9 |
| 20260831052602 | 19 | 85 | 4.8 | 11.3 | 0.00 | 0.00 | 0.00 | 44 | 1030.9 |
| 20260831052054 | 19 | 84 | 4.8 | 11.3 | 0.00 | 0.00 | 0.00 | 44 | 1030.9 |
| 20260831051550 | 20 | 70 | 4.8 | 9.7 | 0.00 | 0.00 | 0.00 | 44 | 1030.9 |
| 20260831051043 | 20 | 99 | 4.8 | 6.4 | 0.00 | 0.00 | 0.00 | 43 | 1030.8 |
| 20260831050538 | 20 | 94 | 1.6 | 6.4 | 0.00 | 0.00 | 0.00 | 43 | 1030.7 |
| 20260831050033 | 20 | 92 | 1.6 | 3.2 | 0.00 | 0.00 | 0.00 | 43 | 1030.7 |
| 20260831045523 | 20 | 80 | 1.6 | 4.8 | 0.00 | 0.00 | 0.00 | 42 | 1030.8 |
| 20260831045018 | 20 | 90 | 1.6 | 4.8 | 0.00 | 0.00 | 0.00 | 42 | 1030.8 |
| 20260831044737 | 20 | 89 | 1.6 | 4.8 | 0.00 | 0.00 | 0.00 | 42 | 1030.8 |
| 20260831044008 | 20 | 90 | 1.6 | 4.8 | 0.00 | 0.00 | 0.00 | 42 | 1030.8 |
| 20260831043502 | 21 | 112 | 1.6 | 6.4 | 0.00 | 0.00 | 0.00 | 41 | 1030.8 |
| 20260831042955 | 21 | 105 | 3.2 | 9.7 | 0.00 | 0.00 | 0.00 | 41 | 1030.8 |
| 20260831042448 | 21 | 110 | 3.2 | 9.7 | 0.00 | 0.00 | 0.00 | 41 | 1030.8 |
| 20260831041942 | 21 | 98 | 1.6 | 6.4 | 0.00 | 0.00 | 0.00 | 40 | 1030.8 |
| 20260831041435 | 21 | 63 | 1.6 | 6.4 | 0.00 | 0.00 | 0.00 | 40 | 1030.8 |
| 20260831040932 | 21 | 61 | 3.2 | 9.7 | 0.00 | 0.00 | 0.00 | 40 | 1030.8 |
| 20260831040647 | 21 | 88 | 4.8 | 9.7 | 0.00 | 0.00 | 0.00 | 40 | 1030.8 |
| 20260831035919 | 21 | 63 | 6.4 | 11.3 | 0.00 | 0.00 | 0.00 | 40 | 1030.8 |
| 20260831035413 | 21 | 72 | 6.4 | 11.3 | 0.00 | 0.00 | 0.00 | 40 | 1030.8 |
| 20260831035124 | 21 | 53 | 6.4 | 11.3 | 0.00 | 0.00 | 0.00 | 40 | 1030.8 |
| 20260831034402 | 21 | 77 | 4.8 | 9.7 | 0.00 | 0.00 | 0.00 | 40 | 1030.8 |
| 20260831033855 | 21 | 51 | 4.8 | 9.7 | 0.00 | 0.00 | 0.00 | 40 | 1030.7 |
| 20260831033349 | 21 | 68 | 6.4 | 11.3 | 0.00 | 0.00 | 0.00 | 40 | 1030.7 |
| 20260831032844 | 21 | 98 | 6.4 | 11.3 | 0.00 | 0.00 | 0.00 | 40 | 1030.7 |
| 20260831032337 | 21 | 103 | 4.8 | 11.3 | 0.00 | 0.00 | 0.00 | 40 | 1030.8 |
| 20260831031831 | 21 | 78 | 6.4 | 11.3 | 0.00 | 0.00 | 0.00 | 40 | 1030.7 |
| 20260831031326 | 21 | 86 | 6.4 | 11.3 | 0.00 | 0.00 | 0.00 | 41 | 1030.6 |
| 20260831030820 | 21 | 39 | 6.4 | 9.7 | 0.00 | 0.00 | 0.00 | 41 | 1030.3 |
| 20260831030313 | 21 | 19 | 4.8 | 9.7 | 0.00 | 0.00 | 0.00 | 41 | 1030.3 |
| 20260831025808 | 21 | 67 | 6.4 | 11.3 | 0.00 | 0.00 | 0.00 | 41 | 1030.3 |
| 20260831025306 | 21 | 68 | 6.4 | 11.3 | 0.00 | 0.00 | 0.00 | 41 | 1030.2 |
| 20260831025016 | 21 | 26 | 4.8 | 8.0 | 0.00 | 0.00 | 0.00 | 40 | 1030.1 |
| 20260831024858 | 21 | 40 | 4.8 | 9.7 | 0.00 | 0.00 | 0.00 | 40 | 1030.2 |
| 20260831023804 | 21 | 58 | 4.8 | 12.9 | 0.00 | 0.00 | 0.00 | 40 | 1030.1 |
| 20260831023524 | 22 | 37 | 4.8 | 12.9 | 0.00 | 0.00 | 0.00 | 39 | 1029.9 |
| 20260831022804 | 22 | 39 | 4.8 | 8.0 | 0.00 | 0.00 | 0.00 | 39 | 1029.9 |
| 20260831022306 | 22 | 27 | 4.8 | 8.0 | 0.00 | 0.00 | 0.00 | 39 | 1029.8 |
| 20260831021804 | 22 | 30 | 4.8 | 8.0 | 0.00 | 0.00 | 0.00 | 39 | 1029.9 |
| 20260831021304 | 22 | 31 | 6.4 | 8.0 | 0.00 | 0.00 | 0.00 | 39 | 1029.9 |
| 20260831020805 | 23 | 24 | 6.4 | 11.3 | 0.00 | 0.00 | 0.00 | 38 | 1029.8 |
| 20260831020304 | 23 | 16 | 8.0 | 11.3 | 0.00 | 0.00 | 0.00 | 37 | 1029.7 |
| 20260831015804 | 23 | 13 | 8.0 | 11.3 | 0.00 | 0.00 | 0.00 | 37 | 1029.6 |
| 20260831015306 | 23 | 5 | 6.4 | 11.3 | 0.00 | 0.00 | 0.00 | 36 | 1029.7 |
| 20260831014804 | 23 | 16 | 3.2 | 8.0 | 0.00 | 0.00 | 0.00 | 36 | 1029.6 |
| 20260831014304 | 24 | 28 | 3.2 | 6.4 | 0.00 | 0.00 | 0.00 | 36 | 1029.6 |
| 20260831013800 | 24 | 17 | 1.6 | 4.8 | 0.00 | 0.00 | 0.00 | 35 | 1029.6 |
| 20260831013258 | 24 | 348 | 0.0 | 4.8 | 0.00 | 0.00 | 0.00 | 35 | 1029.6 |
| 20260831012758 | 25 | 15 | 0.0 | 3.2 | 0.00 | 0.00 | 0.00 | 35 | 1029.6 |
| 20260831012251 | 25 | 15 | 0.0 | 3.2 | 0.00 | 0.00 | 0.00 | 35 | 1029.6 |
| 20260831011748 | 25 | 15 | 1.6 | 4.8 | 0.00 | 0.00 | 0.00 | 35 | 1029.6 |
| 20260831011505 | 25 | 15 | 1.6 | 4.8 | 0.00 | 0.00 | 0.00 | 35 | 1029.6 |
| 20260831010734 | 25 | 336 | 1.6 | 4.8 | 0.00 | 0.00 | 0.00 | 36 | 1029.6 |
| 20260831010227 | 25 | 346 | 1.6 | 4.8 | 0.00 | 0.00 | 0.00 | 34 | 1029.6 |
| 20260831005722 | 25 | 25 | 1.6 | 4.8 | 0.00 | 0.00 | 0.00 | 34 | 1029.6 |
| 20260831005217 | 25 | 0 | 1.6 | 8.0 | 0.00 | 0.00 | 0.00 | 33 | 1029.7 |
| 20260831004709 | 26 | 332 | 1.6 | 8.0 | 0.00 | 0.00 | 0.00 | 34 | 1029.7 |
| 20260831004204 | 26 | 0 | 0.0 | 6.4 | 0.00 | 0.00 | 0.00 | 35 | 1029.7 |
| 20260831003658 | 26 | 19 | 3.2 | 12.9 | 0.00 | 0.00 | 0.00 | 34 | 1029.7 |
| 20260831003152 | 26 | 0 | 4.8 | 12.9 | 0.00 | 0.00 | 0.00 | 33 | 1029.7 |
| 20260831002646 | 26 | 31 | 3.2 | 11.3 | 0.00 | 0.00 | 0.00 | 33 | 1029.7 |
| 20260831002140 | 26 | 21 | 0.0 | 4.8 | 0.00 | 0.00 | 0.00 | 33 | 1029.8 |
| 20260831001634 | 26 | 338 | 0.0 | 1.6 | 0.00 | 0.00 | 0.00 | 34 | 1029.9 |
| 20260831001128 | 26 | 232 | 1.6 | 4.8 | 0.00 | 0.00 | 0.00 | 33 | 1029.8 |
| 20260831000621 | 27 | 273 | 1.6 | 8.0 | 0.00 | 0.00 | 0.00 | 32 | 1029.8 |
| 20260831000115 | 27 | 261 | 1.6 | 8.0 | 0.00 | 0.00 | 0.00 | 32 | 1029.8 |
| 20260830235610 | 27 | 254 | 0.0 | 3.2 | 0.00 | 0.00 | 0.00 | 32 | 1029.8 |
| 20260830235104 | 27 | 153 | 0.0 | 6.4 | 0.00 | 0.00 | 0.00 | 31 | 1029.7 |
| 20260830234605 | 27 | 142 | 3.2 | 11.3 | 0.00 | 0.00 | 0.00 | 31 | 1029.8 |
| 20260830234104 | 27 | 38 | 4.8 | 14.5 | 0.00 | 0.00 | 0.00 | 31 | 1029.7 |
| 20260830233602 | 28 | 335 | 6.4 | 19.3 | 0.00 | 0.00 | 0.00 | 30 | 1029.7 |
| 20260830233100 | 28 | 342 | 6.4 | 20.9 | 0.00 | 0.00 | 0.00 | 30 | 1029.7 |
| 20260830232601 | 28 | 297 | 6.4 | 20.9 | 0.00 | 0.00 | 0.00 | 30 | 1029.7 |
| 20260830232100 | 28 | 298 | 4.8 | 12.9 | 0.00 | 0.00 | 0.00 | 30 | 1029.7 |
| 20260830231600 | 28 | 131 | 4.8 | 14.5 | 0.00 | 0.00 | 0.00 | 31 | 1029.7 |
| 20260830231100 | 28 | 355 | 4.8 | 14.5 | 0.00 | 0.00 | 0.00 | 31 | 1029.7 |
| 20260830230600 | 27 | 308 | 4.8 | 12.9 | 0.00 | 0.00 | 0.00 | 32 | 1029.7 |
| 20260830230318 | 27 | 258 | 4.8 | 16.1 | 0.00 | 0.00 | 0.00 | 33 | 1029.8 |
| 20260830225816 | 27 | 64 | 6.4 | 19.3 | 0.00 | 0.00 | 0.00 | 33 | 1029.8 |
| 20260830225100 | 27 | 260 | 8.0 | 19.3 | 0.00 | 0.00 | 0.00 | 33 | 1029.9 |
| 20260830224559 | 27 | 11 | 6.4 | 16.1 | 0.00 | 0.00 | 0.00 | 34 | 1029.9 |
| 20260830224100 | 26 | 347 | 6.4 | 16.1 | 0.00 | 0.00 | 0.00 | 35 | 1029.9 |
| 20260830223600 | 26 | 306 | 8.0 | 22.5 | 0.00 | 0.00 | 0.00 | 36 | 1030.1 |
| 20260830223551 | 26 | 311 | 8.0 | 22.5 | 0.00 | 0.00 | 0.00 | 36 | 1030.1 |
| 20260830222559 | 26 | 315 | 9.7 | 20.9 | 0.00 | 0.00 | 0.00 | 36 | 1030.1 |
| 20260830222059 | 26 | 309 | 11.3 | 20.9 | 0.00 | 0.00 | 0.00 | 35 | 1030.1 |
| 20260830221601 | 26 | 40 | 9.7 | 20.9 | 0.00 | 0.00 | 0.00 | 35 | 1030.1 |
| 20260830221059 | 26 | 5 | 8.0 | 19.3 | 0.00 | 0.00 | 0.00 | 35 | 1030.1 |
| 20260830220600 | 26 | 323 | 6.4 | 19.3 | 0.00 | 0.00 | 0.00 | 35 | 1030.2 |
| 20260830220100 | 26 | 32 | 6.4 | 19.3 | 0.00 | 0.00 | 0.00 | 34 | 1030.3 |
| 20260830215559 | 27 | 321 | 4.8 | 16.1 | 0.00 | 0.00 | 0.00 | 34 | 1030.2 |
| 20260830215100 | 27 | 14 | 6.4 | 16.1 | 0.00 | 0.00 | 0.00 | 34 | 1030.2 |
| 20260830214601 | 27 | 30 | 6.4 | 16.1 | 0.00 | 0.00 | 0.00 | 34 | 1030.2 |
| 20260830214100 | 27 | 320 | 6.4 | 17.7 | 0.00 | 0.00 | 0.00 | 34 | 1030.3 |
| 20260830213826 | 27 | 342 | 4.8 | 17.7 | 0.00 | 0.00 | 0.00 | 34 | 1030.3 |
| 20260830213100 | 27 | 285 | 6.4 | 19.3 | 0.00 | 0.00 | 0.00 | 33 | 1030.3 |
| 20260830212821 | 27 | 269 | 6.4 | 19.3 | 0.00 | 0.00 | 0.00 | 32 | 1030.3 |
| 20260830212054 | 27 | 38 | 4.8 | 16.1 | 0.00 | 0.00 | 0.00 | 32 | 1030.3 |
| 20260830211548 | 28 | 288 | 4.8 | 12.9 | 0.00 | 0.00 | 0.00 | 31 | 1030.3 |
| 20260830211042 | 28 | 251 | 6.4 | 12.9 | 0.00 | 0.00 | 0.00 | 31 | 1030.3 |
| 20260830210752 | 28 | 254 | 6.4 | 16.1 | 0.00 | 0.00 | 0.00 | 30 | 1030.4 |
| 20260830210251 | 29 | 317 | 8.0 | 16.1 | 0.00 | 0.00 | 0.00 | 29 | 1030.6 |
| 20260830205749 | 30 | 309 | 6.4 | 20.9 | 0.00 | 0.00 | 0.00 | 29 | 1030.4 |
| 20260830205025 | 30 | 296 | 6.4 | 20.9 | 0.00 | 0.00 | 0.00 | 28 | 1030.6 |
| 20260830204747 | 30 | 263 | 6.4 | 17.7 | 0.00 | 0.00 | 0.00 | 29 | 1030.7 |
| 20260830204026 | 30 | 324 | 8.0 | 17.7 | 0.00 | 0.00 | 0.00 | 29 | 1030.7 |
| 20260830203525 | 29 | 346 | 9.7 | 22.5 | 0.00 | 0.00 | 0.00 | 31 | 1030.8 |
| 20260830203025 | 29 | 12 | 9.7 | 22.5 | 0.00 | 0.00 | 0.00 | 31 | 1030.8 |
| 20260830202526 | 29 | 244 | 6.4 | 19.3 | 0.00 | 0.00 | 0.00 | 31 | 1030.9 |
| 20260830202025 | 29 | 9 | 8.0 | 19.3 | 0.00 | 0.00 | 0.00 | 31 | 1031.1 |
| 20260830201525 | 28 | 296 | 6.4 | 19.3 | 0.00 | 0.00 | 0.00 | 31 | 1031.1 |
| 20260830201025 | 28 | 0 | 6.4 | 16.1 | 0.00 | 0.00 | 0.00 | 32 | 1031.2 |
| 20260830200525 | 28 | 296 | 11.3 | 20.9 | 0.00 | 0.00 | 0.00 | 31 | 1031.3 |
| 20260830200025 | 28 | 292 | 12.9 | 22.5 | 0.00 | 0.00 | 0.00 | 30 | 1031.3 |
| 20260830195751 | 29 | 125 | 11.3 | 22.5 | 0.00 | 0.00 | 0.00 | 30 | 1031.5 |
| 20260830195025 | 29 | 257 | 9.7 | 20.9 | 0.00 | 0.00 | 0.00 | 31 | 1031.5 |
| 20260830194525 | 28 | 288 | 8.0 | 20.9 | 0.00 | 0.00 | 0.00 | 32 | 1031.5 |
| 20260830194251 | 28 | 284 | 6.4 | 20.9 | 0.00 | 0.00 | 0.00 | 30 | 1031.6 |
| 20260830193523 | 28 | 263 | 6.4 | 17.7 | 0.00 | 0.00 | 0.00 | 31 | 1031.6 |
| 20260830193506 | 28 | 291 | 8.0 | 19.3 | 0.00 | 0.00 | 0.00 | 31 | 1031.7 |
| 20260830192517 | 28 | 141 | 6.4 | 19.3 | 0.00 | 0.00 | 0.00 | 32 | 1031.7 |
| 20260830192011 | 28 | 211 | 4.8 | 12.9 | 0.00 | 0.00 | 0.00 | 33 | 1031.7 |
| 20260830191504 | 27 | 323 | 6.4 | 17.7 | 0.00 | 0.00 | 0.00 | 33 | 1031.7 |
| 20260830190959 | 27 | 318 | 8.0 | 19.3 | 0.00 | 0.00 | 0.00 | 33 | 1031.8 |
| 20260830190453 | 27 | 292 | 9.7 | 19.3 | 0.00 | 0.00 | 0.00 | 32 | 1031.8 |
| 20260830185946 | 27 | 345 | 8.0 | 19.3 | 0.00 | 0.00 | 0.00 | 32 | 1031.8 |
| 20260830185702 | 27 | 0 | 9.7 | 27.4 | 0.00 | 0.00 | 0.00 | 32 | 1032.0 |
| 20260830185153 | 27 | 335 | 9.7 | 27.4 | 0.00 | 0.00 | 0.00 | 33 | 1032.0 |
| 20260830184428 | 27 | 298 | 8.0 | 20.9 | 0.00 | 0.00 | 0.00 | 32 | 1032.2 |
| 20260830184143 | 27 | 327 | 8.0 | 20.9 | 0.00 | 0.00 | 0.00 | 34 | 1032.2 |
| 20260830183416 | 27 | 255 | 8.0 | 20.9 | 0.00 | 0.00 | 0.00 | 34 | 1032.2 |
| 20260830182910 | 26 | 270 | 6.4 | 17.7 | 0.00 | 0.00 | 0.00 | 33 | 1032.3 |
| 20260830182404 | 26 | 88 | 8.0 | 17.7 | 0.00 | 0.00 | 0.00 | 34 | 1032.5 |
| 20260830181858 | 26 | 274 | 6.4 | 17.7 | 0.00 | 0.00 | 0.00 | 35 | 1032.5 |
| 20260830181353 | 26 | 348 | 6.4 | 20.9 | 0.00 | 0.00 | 0.00 | 34 | 1032.5 |
| 20260830180846 | 26 | 333 | 9.7 | 24.1 | 0.00 | 0.00 | 0.00 | 34 | 1032.6 |
| 20260830180340 | 26 | 344 | 9.7 | 25.7 | 0.00 | 0.00 | 0.00 | 35 | 1032.6 |
| 20260830175835 | 25 | 229 | 9.7 | 25.7 | 0.00 | 0.00 | 0.00 | 35 | 1032.6 |
| 20260830175328 | 25 | 191 | 8.0 | 17.7 | 0.00 | 0.00 | 0.00 | 35 | 1032.8 |
| 20260830174822 | 25 | 302 | 8.0 | 19.3 | 0.00 | 0.00 | 0.00 | 35 | 1032.8 |
| 20260830174317 | 25 | 285 | 6.4 | 19.3 | 0.00 | 0.00 | 0.00 | 38 | 1032.8 |
| 20260830173810 | 25 | 295 | 6.4 | 16.1 | 0.00 | 0.00 | 0.00 | 39 | 1033.0 |
| 20260830173305 | 25 | 335 | 8.0 | 17.7 | 0.00 | 0.00 | 0.00 | 38 | 1033.1 |
| 20260830172759 | 25 | 348 | 6.4 | 17.7 | 0.00 | 0.00 | 0.00 | 40 | 1033.2 |
| 20260830172253 | 24 | 285 | 6.4 | 17.7 | 0.00 | 0.00 | 0.00 | 40 | 1033.2 |
| 20260830171746 | 24 | 247 | 6.4 | 17.7 | 0.00 | 0.00 | 0.00 | 39 | 1033.2 |
| 20260830171241 | 23 | 329 | 6.4 | 17.7 | 0.00 | 0.00 | 0.00 | 41 | 1033.3 |
| 20260830170734 | 23 | 252 | 3.2 | 17.7 | 0.00 | 0.00 | 0.00 | 43 | 1033.2 |
| 20260830170228 | 23 | 317 | 4.8 | 12.9 | 0.00 | 0.00 | 0.00 | 42 | 1033.3 |
| 20260830165722 | 23 | 331 | 4.8 | 12.9 | 0.00 | 0.00 | 0.00 | 43 | 1033.5 |
| 20260830165217 | 23 | 258 | 6.4 | 19.3 | 0.00 | 0.00 | 0.00 | 45 | 1033.5 |
| 20260830164710 | 23 | 327 | 8.0 | 19.3 | 0.00 | 0.00 | 0.00 | 45 | 1033.6 |
| 20260830164205 | 22 | 294 | 8.0 | 19.3 | 0.00 | 0.00 | 0.00 | 44 | 1033.6 |
| 20260830163659 | 22 | 301 | 9.7 | 20.9 | 0.00 | 0.00 | 0.00 | 46 | 1033.7 |
| 20260830163152 | 22 | 257 | 9.7 | 20.9 | 0.00 | 0.00 | 0.00 | 46 | 1033.6 |
| 20260830162647 | 22 | 275 | 6.4 | 20.9 | 0.00 | 0.00 | 0.00 | 46 | 1033.6 |
| 20260830162407 | 22 | 287 | 6.4 | 19.3 | 0.00 | 0.00 | 0.00 | 44 | 1033.5 |
| 20260830161634 | 22 | 317 | 9.7 | 19.3 | 0.00 | 0.00 | 0.00 | 43 | 1033.5 |
| 20260830161128 | 22 | 355 | 8.0 | 19.3 | 0.00 | 0.00 | 0.00 | 44 | 1033.5 |
| 20260830160622 | 21 | 331 | 8.0 | 19.3 | 0.00 | 0.00 | 0.00 | 46 | 1033.3 |
| 20260830160116 | 21 | 325 | 8.0 | 17.7 | 0.00 | 0.00 | 0.00 | 47 | 1033.3 |
| 20260830155611 | 21 | 23 | 6.4 | 16.1 | 0.00 | 0.00 | 0.00 | 49 | 1033.5 |
| 20260830155104 | 21 | 351 | 4.8 | 14.5 | 0.00 | 0.00 | 0.00 | 51 | 1033.3 |
| 20260830154558 | 20 | 336 | 3.2 | 14.5 | 0.00 | 0.00 | 0.00 | 52 | 1033.3 |
| 20260830154052 | 20 | 273 | 3.2 | 11.3 | 0.00 | 0.00 | 0.00 | 53 | 1033.2 |
| 20260830153546 | 20 | 290 | 1.6 | 11.3 | 0.00 | 0.00 | 0.00 | 54 | 1033.2 |
| 20260830153041 | 19 | 9 | 1.6 | 8.0 | 0.00 | 0.00 | 0.00 | 56 | 1033.1 |
| 20260830152533 | 19 | 288 | 1.6 | 6.4 | 0.00 | 0.00 | 0.00 | 57 | 1033.1 |
| 20260830152224 | 18 | 319 | 0.0 | 1.6 | 0.00 | 0.00 | 0.00 | 60 | 1033.0 |
| 20260830152113 | 18 | 254 | 0.0 | 3.2 | 0.00 | 0.00 | 0.00 | 58 | 1033.0 |
| 20260830151015 | 18 | 61 | 1.6 | 4.8 | 0.00 | 0.00 | 0.00 | 61 | 1033.0 |
| 20260830150732 | 18 | 61 | 1.6 | 6.4 | 0.00 | 0.00 | 0.00 | 62 | 1033.1 |
| 20260830150011 | 18 | 5 | 0.0 | 6.4 | 0.00 | 0.00 | 0.00 | 62 | 1033.1 |
| 20260830145506 | 18 | 336 | 1.6 | 6.4 | 0.00 | 0.00 | 0.00 | 62 | 1033.2 |
| 20260830145007 | 18 | 311 | 1.6 | 11.3 | 0.00 | 0.00 | 0.00 | 62 | 1033.2 |
| 20260830144509 | 17 | 227 | 1.6 | 11.3 | 0.00 | 0.00 | 0.00 | 61 | 1033.1 |
| 20260830144005 | 17 | 248 | 1.6 | 9.7 | 0.00 | 0.00 | 0.00 | 61 | 1033.2 |
| 20260830143505 | 17 | 235 | 1.6 | 8.0 | 0.00 | 0.00 | 0.00 | 61 | 1033.1 |
| 20260830143003 | 17 | 235 | 1.6 | 8.0 | 0.00 | 0.00 | 0.00 | 61 | 1033.1 |
| 20260830142504 | 17 | 262 | 3.2 | 11.3 | 0.00 | 0.00 | 0.00 | 61 | 1033.2 |
| 20260830142002 | 17 | 242 | 4.8 | 12.9 | 0.00 | 0.00 | 0.00 | 61 | 1033.2 |
| 20260830141717 | 17 | 259 | 1.6 | 12.9 | 0.00 | 0.00 | 0.00 | 60 | 1033.2 |
| 20260830140956 | 17 | 235 | 0.0 | 0.0 | 0.00 | 0.00 | 0.00 | 61 | 1033.1 |
| 20260830140455 | 17 | 235 | 0.0 | 3.2 | 0.00 | 0.00 | 0.00 | 60 | 1033.1 |
| 20260830135952 | 17 | 235 | 1.6 | 4.8 | 0.00 | 0.00 | 0.00 | 60 | 1033.1 |
| 20260830135713 | 17 | 256 | 1.6 | 4.8 | 0.00 | 0.00 | 0.00 | 60 | 1033.0 |
| 20260830134950 | 17 | 237 | 0.0 | 4.8 | 0.00 | 0.00 | 0.00 | 60 | 1033.0 |
| 20260830134707 | 17 | 250 | 0.0 | 3.2 | 0.00 | 0.00 | 0.00 | 59 | 1033.0 |
| 20260830133949 | 17 | 192 | 0.0 | 0.0 | 0.00 | 0.00 | 0.00 | 59 | 1033.0 |
| 20260830133446 | 17 | 192 | 0.0 | 0.0 | 0.00 | 0.00 | 0.00 | 59 | 1032.8 |
| 20260830132945 | 17 | 192 | 0.0 | 0.0 | 0.00 | 0.00 | 0.00 | 59 | 1032.7 |
| 20260830132443 | 17 | 192 | 0.0 | 0.0 | 0.00 | 0.00 | 0.00 | 58 | 1032.7 |
| 20260830131943 | 17 | 192 | 0.0 | 0.0 | 0.00 | 0.00 | 0.00 | 59 | 1032.6 |
| 20260830131443 | 17 | 192 | 0.0 | 0.0 | 0.00 | 0.00 | 0.00 | 59 | 1032.6 |
| 20260830130943 | 17 | 192 | 0.0 | 0.0 | 0.00 | 0.00 | 0.00 | 58 | 1032.6 |
| 20260830130442 | 17 | 221 | 0.0 | 0.0 | 0.00 | 0.00 | 0.00 | 57 | 1032.6 |
| 20260830125943 | 17 | 172 | 0.0 | 0.0 | 0.00 | 0.00 | 0.00 | 57 | 1032.6 |
| 20260830125706 | 17 | 172 | 0.0 | 0.0 | 0.00 | 0.00 | 0.00 | 57 | 1032.6 |
| 20260830124942 | 17 | 172 | 0.0 | 0.0 | 0.00 | 0.00 | 0.00 | 56 | 1032.6 |
| 20260830124703 | 17 | 172 | 0.0 | 0.0 | 0.00 | 0.00 | 0.00 | 56 | 1032.3 |
| 20260830124155 | 17 | 153 | 0.0 | 0.0 | 0.00 | 0.00 | 0.00 | 56 | 1032.3 |
| 20260830123438 | 17 | 72 | 0.0 | 0.0 | 0.00 | 0.00 | 0.00 | 56 | 1032.3 |
| 20260830123159 | 17 | 72 | 0.0 | 0.0 | 0.00 | 0.00 | 0.00 | 55 | 1032.3 |
| 20260830122439 | 17 | 72 | 0.0 | 0.0 | 0.00 | 0.00 | 0.00 | 55 | 1032.2 |
| 20260830121938 | 17 | 72 | 0.0 | 0.0 | 0.00 | 0.00 | 0.00 | 55 | 1032.2 |
| 20260830121659 | 17 | 72 | 0.0 | 0.0 | 0.00 | 0.00 | 0.00 | 55 | 1032.2 |
| 20260830120939 | 17 | 72 | 0.0 | 0.0 | 0.00 | 0.00 | 0.00 | 54 | 1032.2 |
| 20260830120703 | 17 | 72 | 0.0 | 0.0 | 0.00 | 0.00 | 0.00 | 54 | 1032.2 |
| 20260830115938 | 17 | 72 | 0.0 | 0.0 | 0.00 | 0.00 | 0.00 | 54 | 1032.2 |
| 20260830115438 | 17 | 72 | 0.0 | 0.0 | 0.00 | 0.00 | 0.00 | 54 | 1032.2 |
| 20260830114938 | 17 | 72 | 0.0 | 0.0 | 0.00 | 0.00 | 0.00 | 54 | 1032.1 |
| 20260830114653 | 17 | 68 | 0.0 | 0.0 | 0.00 | 0.00 | 0.00 | 54 | 1031.8 |
| 20260830114531 | 17 | 72 | 0.0 | 0.0 | 0.00 | 0.00 | 0.00 | 54 | 1032.0 |
| 20260830113436 | 17 | 68 | 0.0 | 0.0 | 0.00 | 0.00 | 0.00 | 54 | 1032.0 |
| 20260830112936 | 17 | 68 | 1.6 | 8.0 | 0.00 | 0.00 | 0.00 | 54 | 1031.8 |
| 20260830112436 | 17 | 55 | 3.2 | 8.0 | 0.00 | 0.00 | 0.00 | 54 | 1032.0 |
| 20260830111935 | 17 | 17 | 4.8 | 12.9 | 0.00 | 0.00 | 0.00 | 55 | 1032.0 |
| 20260830111434 | 17 | 22 | 6.4 | 12.9 | 0.00 | 0.00 | 0.00 | 55 | 1032.0 |
| 20260830110936 | 17 | 24 | 6.4 | 12.9 | 0.00 | 0.00 | 0.00 | 54 | 1032.1 |
| 20260830110431 | 17 | 11 | 4.8 | 12.9 | 0.00 | 0.00 | 0.00 | 54 | 1032.1 |
| 20260830110149 | 17 | 5 | 3.2 | 12.9 | 0.00 | 0.00 | 0.00 | 53 | 1032.1 |
| 20260830105425 | 17 | 338 | 3.2 | 12.9 | 0.00 | 0.00 | 0.00 | 53 | 1032.1 |
| 20260830104924 | 17 | 15 | 1.6 | 11.3 | 0.00 | 0.00 | 0.00 | 53 | 1032.1 |
| 20260830104646 | 17 | 12 | 0.0 | 11.3 | 0.00 | 0.00 | 0.00 | 54 | 1032.1 |